Ottumwa, IA

8:12 PM CDT on July 23, 2017 (GMT -0500)
Ottumwa Industrial

Weather History for KOTM - February, 2011

Change the Weather History Date:

Monday, February 21, 2011

  Actual Average Record
Temperature  
Mean Temperature 32 °F 29 °F  
Max Temperature 39 °F 38 °F 70 °F (2017)
Min Temperature 24 °F 20 °F -7 °F (1963)
Degree Days  
Heating Degree Days 33 36  
Month to date heating degree days 811 821  
Since 1 July heating degree days 4661 4643  
Cooling Degree Days 0 0  
Month to date cooling degree days 0 0  
Year to date cooling degree days 0 0  
Moisture  
Dew Point 26 °F    
Average Humidity 82    
Maximum Humidity 96    
Minimum Humidity 68    
Precipitation  
Precipitation 0.00 in 0.06 in 1.16 in (1997)
Month to date precipitation 0.81 0.84  
Year to date precipitation 1.21 1.74  
Sea Level Pressure  
Sea Level Pressure 29.81 in    
Wind  
Wind Speed 14 mph (WNW)    
Max Wind Speed 20 mph    
Max Gust Speed 25 mph    
Visibility 9 miles    
Events      
T = Trace of Precipitation, MM = Missing Value Source: NWS Daily Summary

Daily Weather History Graph

Daily Weather History Graph

Search for Another Location

Airport or City:

Trip Planner

Search our weather history database for the weather conditions in past years. The results will help you decide how hot, cold, wet, or windy it might be!

Date:

Astronomy

Feb. 21, 2011 Rise Set
Actual Time 6:56 AM CST 5:51 PM CST
Civil Twilight 6:28 AM CST 6:19 PM CST
Nautical Twilight 5:56 AM CST 6:51 PM CST
Astronomical Twilight 5:24 AM CST 7:22 PM CST
Moon 10:29 PM CST (2/21) 8:22 AM CST (2/21)
Length of Visible Light 11h 50m
Length of Day
10h 54m
Waning Gibbous, 84% of the Moon is Illuminated
Feb 21
Waning Gibbous
Feb 24
Last Quarter
Mar 4
New
Mar 12
First Quarter
Mar 19
Full

Hourly Weather History & Observations

Time (CST) Temp. Windchill Dew Point Humidity Pressure Visibility Wind Dir Wind Speed Gust Speed Precip Events Conditions
12:53 AM 37.9 °F 28.2 °F 35.1 °F 89% 29.65 in 10.0 mi WNW 18.4 mph 23.0 mph N/A   Overcast
1:53 AM 37.0 °F 30.4 °F 34.0 °F 89% 29.66 in 10.0 mi WNW 9.2 mph - N/A   Overcast
2:53 AM 37.0 °F 30.4 °F 34.0 °F 89% 29.67 in 10.0 mi WNW 9.2 mph - N/A   Overcast
3:53 AM 36.0 °F 28.5 °F 33.1 °F 89% 29.68 in 10.0 mi WNW 10.4 mph - N/A   Overcast
4:28 AM 35.6 °F 26.6 °F 32.0 °F 87% 29.66 in 10.0 mi WNW 13.8 mph - N/A   Overcast
4:50 AM 35.6 °F 28.0 °F 32.0 °F 87% 29.67 in 10.0 mi WNW 10.4 mph - N/A   Overcast
4:53 AM 35.1 °F 26.4 °F 32.0 °F 89% 29.68 in 10.0 mi WNW 12.7 mph - N/A   Overcast
5:46 AM 33.8 °F 26.4 °F 32.0 °F 93% 29.70 in 10.0 mi WNW 9.2 mph - N/A   Overcast
5:53 AM 34.0 °F 27.2 °F 32.0 °F 92% 29.71 in 10.0 mi West 8.1 mph - N/A   Overcast
6:53 AM 34.0 °F 25.5 °F 30.9 °F 89% 29.72 in 10.0 mi WNW 11.5 mph - N/A   Overcast
7:36 AM 33.8 °F 25.3 °F 30.2 °F 87% 29.71 in 9.0 mi WNW 11.5 mph - N/A   Overcast
7:53 AM 33.1 °F 23.9 °F 30.9 °F 92% 29.75 in 6.0 mi WNW 12.7 mph - N/A   Overcast
8:53 AM 32.0 °F 22.1 °F 30.0 °F 92% 29.77 in 5.0 mi West 13.8 mph - N/A   Overcast
9:53 AM 32.0 °F 22.5 °F 28.9 °F 88% 29.78 in 6.0 mi West 12.7 mph - N/A   Overcast
10:53 AM 30.9 °F 20.7 °F 27.0 °F 85% 29.80 in 4.0 mi WNW 13.8 mph - N/A   Overcast
11:53 AM 30.0 °F 19.5 °F 26.1 °F 85% 29.81 in 9.0 mi West 13.8 mph - N/A   Overcast
12:53 PM 30.0 °F 19.5 °F 25.0 °F 82% 29.82 in 10.0 mi West 13.8 mph - N/A   Overcast
1:18 PM 30.2 °F 20.2 °F 24.8 °F 80% 29.80 in 10.0 mi West 12.7 mph - N/A   Overcast
1:53 PM 30.0 °F 19.1 °F 23.0 °F 75% 29.83 in 10.0 mi WNW 15.0 mph - N/A   Overcast
2:53 PM 28.9 °F 17.7 °F 21.0 °F 72% 29.84 in 10.0 mi WNW 15.0 mph 20.7 mph N/A   Overcast
3:53 PM 28.9 °F 18.6 °F 21.0 °F 72% 29.86 in 10.0 mi WNW 12.7 mph - N/A   Overcast
4:53 PM 28.0 °F 16.5 °F 19.9 °F 72% 29.89 in 10.0 mi West 15.0 mph - N/A   Overcast
5:53 PM 28.0 °F 15.7 °F 19.9 °F 72% 29.92 in 10.0 mi West 17.3 mph - N/A   Overcast
6:53 PM 27.0 °F 14.3 °F 19.0 °F 72% 29.95 in 10.0 mi WNW 17.3 mph 25.3 mph N/A   Overcast
7:53 PM 27.0 °F 15.2 °F 18.0 °F 69% 29.97 in 10.0 mi WNW 15.0 mph 23.0 mph N/A   Overcast
8:53 PM 26.1 °F 13.6 °F 17.1 °F 69% 30.00 in 10.0 mi West 16.1 mph 25.3 mph N/A   Overcast
9:34 PM 26.6 °F 15.7 °F 17.6 °F 69% 29.97 in 10.0 mi West 12.7 mph - N/A   Overcast
9:53 PM 25.0 °F 11.3 °F 17.1 °F 72% 30.00 in 10.0 mi WNW 18.4 mph 25.3 mph N/A   Overcast
10:53 PM 25.0 °F 12.6 °F 17.1 °F 72% 30.02 in 10.0 mi WNW 15.0 mph - N/A   Overcast
11:53 PM 24.1 °F 12.5 °F 17.1 °F 75% 30.04 in 10.0 mi West 12.7 mph - N/A   Overcast